Carbondale, IL

2:24 AM CST on November 14, 2019 (GMT -0600)
Southern Illinois

Weather History for KMDH - August, 2019

Change the Weather History Date:

Tuesday, August 13, 2019

  Actual Average Record
Temperature  
Mean Temperature 80 °F -  
Max Temperature 90 °F 86 °F 100 °F (1936)
Min Temperature 71 °F 62 °F 37 °F (1996)
Cooling Degree Days 15    
Growing Degree Days 30 (Base 50)    
Moisture  
Dew Point 73 °F    
Average Humidity 82    
Maximum Humidity 96    
Minimum Humidity 61    
Precipitation  
Precipitation 0.09 in - - ()
Sea Level Pressure  
Sea Level Pressure 29.86 in    
Wind  
Wind Speed 9 mph (West)    
Max Wind Speed 16 mph    
Max Gust Speed 28 mph    
Visibility 8 miles    
Events Rain , Thunderstorm    
Averages and records for this station are not official NWS values.
T = Trace of Precipitation, MM = Missing Value Source: NWS Daily Summary

Daily Weather History Graph

Daily Weather History Graph

Search for Another Location

Airport or City:

Astronomy

Aug. 13, 2019 Rise Set
Actual Time 6:10 AM CDT 7:52 PM CDT
Civil Twilight 5:42 AM CDT 8:20 PM CDT
Nautical Twilight 5:08 AM CDT 8:54 PM CDT
Astronomical Twilight 4:32 AM CDT 9:30 PM CDT
Moon 7:05 PM CDT (8/13) 4:14 AM CDT (8/13)
Length of Visible Light 14h 38m
Length of Day
13h 41m
Waxing Gibbous, 97% of the Moon is Illuminated
Aug 13
Waxing Gibbous
Aug 15
Full
Aug 23
Last Quarter
Aug 30
New
Sep 5
First Quarter

Hourly Weather History & Observations

Time (CDT) Temp. Heat Index Dew Point Humidity Pressure Visibility Wind Dir Wind Speed Gust Speed Precip Events Conditions
12:52 AM 82.9 °F 90.8 °F 75.9 °F 79% 29.80 in 10.0 mi SSW 11.5 mph - N/A   Clear
1:52 AM 81.0 °F 87.3 °F 75.9 °F 85% 29.79 in 9.0 mi SSW 6.9 mph - N/A   Scattered Clouds
2:52 AM 82.9 °F 90.8 °F 75.9 °F 79% 29.79 in 9.0 mi SSW 8.1 mph - N/A   Scattered Clouds
3:52 AM 82.9 °F 90.8 °F 75.9 °F 79% 29.77 in 10.0 mi SW 11.5 mph - N/A   Mostly Cloudy
4:22 AM 82.0 °F 89.4 °F 75.9 °F 82% 29.79 in 9.0 mi WSW 9.2 mph - N/A Thunderstorm Thunderstorm
4:52 AM 81.0 °F 87.3 °F 75.9 °F 85% 29.80 in 10.0 mi West 9.2 mph 25.3 mph 0.00 in Thunderstorm Thunderstorm
5:26 AM 78.1 °F - 73.9 °F 87% 29.82 in 1.5 mi WSW 3.5 mph - 0.00 in Rain , Thunderstorm Heavy Thunderstorms and Rain
5:35 AM 75.9 °F - 73.9 °F 94% 29.82 in 0.8 mi South 9.2 mph 17.3 mph N/A Rain , Thunderstorm Heavy Thunderstorms and Rain
5:40 AM 75.9 °F - 73.9 °F 94% 29.82 in 2.0 mi WSW 6.9 mph 17.3 mph N/A Rain , Thunderstorm Thunderstorms and Rain
5:47 AM 77.0 °F - 73.4 °F 89% 29.83 in 6.0 mi West 11.5 mph - N/A Rain , Thunderstorm Light Thunderstorms and Rain
5:52 AM 75.9 °F - 73.0 °F 91% 29.83 in 5.0 mi West 15.0 mph 20.7 mph N/A Rain , Thunderstorm Light Thunderstorms and Rain
6:00 AM 75.0 °F - 73.0 °F 94% 29.88 in 1.8 mi SW 16.1 mph - N/A Rain , Thunderstorm Heavy Thunderstorms and Rain
6:12 AM 73.0 °F - 72.0 °F 96% 29.89 in 1.0 mi WNW 16.1 mph 27.6 mph N/A Rain , Thunderstorm Heavy Thunderstorms and Rain
6:17 AM 72.0 °F - 70.0 °F 93% 29.88 in 1.2 mi WNW 12.7 mph 27.6 mph N/A Rain , Thunderstorm Heavy Thunderstorms and Rain
6:27 AM 71.1 °F - 69.1 °F 93% 29.88 in 2.0 mi NW 10.4 mph 24.2 mph N/A Rain , Thunderstorm Heavy Thunderstorms and Rain
6:38 AM 71.1 °F - 69.1 °F 93% 29.86 in 6.0 mi NNE 8.1 mph - N/A Rain , Thunderstorm Light Thunderstorms and Rain
6:47 AM 71.6 °F - 69.8 °F 94% 29.87 in 10.0 mi NE 4.6 mph - N/A Rain Light Rain
6:52 AM 71.1 °F - 69.1 °F 93% 29.87 in 10.0 mi East 3.5 mph - N/A   Mostly Cloudy
6:59 AM 71.1 °F - 69.1 °F 93% 29.89 in 10.0 mi SE 3.5 mph - 0.01 in Thunderstorm Scattered Clouds
7:52 AM 71.1 °F - 70.0 °F 96% 29.83 in 10.0 mi SSE 5.8 mph - 0.05 in Rain Light Rain
8:52 AM 73.0 °F - 71.1 °F 93% 29.84 in 10.0 mi South 6.9 mph - 0.03 in   Clear
9:52 AM 78.1 °F - 73.0 °F 84% 29.86 in 10.0 mi SW 6.9 mph - 0.01 in   Clear
10:52 AM 82.9 °F 88.8 °F 73.0 °F 72% 29.88 in 10.0 mi SW 5.8 mph - N/A   Clear
11:32 AM 82.0 °F 86.3 °F 71.1 °F 69% 29.90 in 10.0 mi SW 9.2 mph - N/A   Overcast
11:52 AM 82.9 °F 88.0 °F 72.0 °F 69% 29.88 in 10.0 mi WSW 8.1 mph - N/A   Overcast
12:52 PM 84.9 °F 91.4 °F 73.0 °F 67% 29.87 in 10.0 mi West 8.1 mph - N/A   Mostly Cloudy
1:52 PM 86.0 °F 93.8 °F 73.9 °F 67% 29.87 in 10.0 mi West 9.2 mph - N/A   Overcast
2:06 PM 86.0 °F 95.1 °F 75.0 °F 70% 29.88 in 10.0 mi West 8.1 mph - N/A   Scattered Clouds
2:52 PM 88.0 °F 96.5 °F 73.9 °F 63% 29.86 in 10.0 mi WNW 9.2 mph - N/A   Mostly Cloudy
3:52 PM 89.1 °F 98.0 °F 73.9 °F 61% 29.86 in 10.0 mi West 6.9 mph - N/A   Mostly Cloudy
4:52 PM 86.0 °F 93.8 °F 73.9 °F 67% 29.85 in 10.0 mi NNW 9.2 mph - N/A   Scattered Clouds
5:52 PM 86.0 °F 92.2 °F 72.0 °F 63% 29.85 in 10.0 mi NNW 12.7 mph - N/A   Clear
6:52 PM 84.9 °F 90.7 °F 72.0 °F 65% 29.88 in 10.0 mi NNW 6.9 mph - N/A   Clear
7:52 PM 80.1 °F 83.8 °F 72.0 °F 76% 29.88 in 10.0 mi Calm Calm - N/A   Clear
8:52 PM 77.0 °F - 73.0 °F 88% 29.89 in 10.0 mi Calm Calm - N/A   Clear
9:52 PM 75.9 °F - 73.0 °F 91% 29.91 in 10.0 mi NW 3.5 mph - N/A   Clear
10:52 PM 75.0 °F - 72.0 °F 90% 29.94 in 10.0 mi Calm Calm - N/A   Clear
11:52 PM 73.9 °F - 71.1 °F 91% 29.95 in 10.0 mi NW 3.5 mph - N/A   Clear